NOZ1HC ENAL-ENGM

Flight info

Callsign NOZ1HC
Flight time 0h 41m
Altitude 29000
Route GIGIR1F GIGIR DCT KEMIV DCT BELGU BELGU3M
Aircraft B38M/M-SDE1FGHILORVWXY/HB1

Departure

Time 2026-04-30 11:25
Airport Ålesund Airport (ENAL)

Arrival

Time 2026-04-30 12:06
Airport Oslo-Gardermoen International Airport (ENGM)
Time Latitude Longitude Altitude Speed Heading
2026-04-30 10:57 62.55915 6.11481 81 ft 0 kts 153°
2026-04-30 11:16 62.55916 6.11480 81 ft 2 kts 153°
2026-04-30 11:16 62.55938 6.11456 86 ft 4 kts 155°
2026-04-30 11:16 62.55956 6.11437 83 ft 0 kts 154°
2026-04-30 11:20 62.55955 6.11440 83 ft 0 kts 143°
2026-04-30 11:20 62.55954 6.11449 83 ft 1 kts 98°
2026-04-30 11:20 62.55976 6.11514 83 ft 12 kts 51°
2026-04-30 11:21 62.56051 6.11625 84 ft 14 kts 46°
2026-04-30 11:21 62.56103 6.11838 84 ft 17 kts 64°
2026-04-30 11:21 62.56159 6.12061 82 ft 17 kts 48°
2026-04-30 11:21 62.56282 6.12167 70 ft 20 kts 38°
2026-04-30 11:22 62.56361 6.12481 56 ft 25 kts 64°
2026-04-30 11:22 62.56430 6.12791 52 ft 20 kts 65°
2026-04-30 11:22 62.56443 6.13001 50 ft 9 kts 78°
2026-04-30 11:22 62.56484 6.13006 49 ft 2 kts 299°
2026-04-30 11:23 62.56481 6.12995 49 ft 2 kts 234°
2026-04-30 11:23 62.56461 6.12934 48 ft 0 kts 245°
2026-04-30 11:24 62.56460 6.12933 50 ft 2 kts 245°
2026-04-30 11:24 62.56372 6.12523 55 ft 72 kts 245°
2026-04-30 11:24 62.56039 6.11007 88 ft 149 kts 244°
2026-04-30 11:25 62.54865 6.06486 1787 ft 184 kts 235°
2026-04-30 11:25 62.54168 6.03881 2365 ft 216 kts 243°
2026-04-30 11:25 62.52863 5.97617 4309 ft 240 kts 245°
2026-04-30 11:26 62.51487 5.90802 6540 ft 249 kts 243°
2026-04-30 11:26 62.50408 5.87883 7601 ft 253 kts 217°
2026-04-30 11:26 62.48787 5.86318 8610 ft 262 kts 195°
2026-04-30 11:27 62.46952 5.86309 9589 ft 276 kts 173°
2026-04-30 11:27 62.45114 5.87981 10514 ft 294 kts 151°
2026-04-30 11:27 62.43602 5.91104 11099 ft 321 kts 129°
2026-04-30 11:27 62.42691 5.95641 11697 ft 344 kts 103°
2026-04-30 11:28 62.43642 6.05851 13261 ft 360 kts 63°
2026-04-30 11:28 62.44707 6.10818 14066 ft 368 kts 65°
2026-04-30 11:28 62.45757 6.15899 14827 ft 372 kts 65°
2026-04-30 11:29 62.46812 6.21039 15570 ft 377 kts 65°
2026-04-30 11:29 62.47879 6.26257 16296 ft 382 kts 66°
2026-04-30 11:29 62.49088 6.37397 17698 ft 387 kts 98°
2026-04-30 11:30 62.47197 6.48084 18965 ft 384 kts 126°
2026-04-30 11:30 62.45824 6.53081 19548 ft 388 kts 126°
2026-04-30 11:30 62.44418 6.58088 20141 ft 392 kts 126°
2026-04-30 11:31 62.42982 6.63128 20718 ft 395 kts 126°
2026-04-30 11:31 62.41527 6.68191 21288 ft 399 kts 127°
2026-04-30 11:31 62.40051 6.73297 21849 ft 403 kts 127°
2026-04-30 11:31 62.38559 6.78437 22412 ft 406 kts 127°
2026-04-30 11:32 62.37053 6.83618 22994 ft 409 kts 127°
2026-04-30 11:32 62.35533 6.88829 23534 ft 413 kts 127°
2026-04-30 11:32 62.33996 6.94093 24021 ft 417 kts 126°
2026-04-30 11:33 62.30883 7.04703 24986 ft 422 kts 126°
2026-04-30 11:33 62.29306 7.10062 25436 ft 425 kts 126°
2026-04-30 11:33 62.28257 7.13621 25743 ft 427 kts 126°
2026-04-30 11:33 62.26660 7.19026 26173 ft 430 kts 126°
2026-04-30 11:34 62.25053 7.24455 26609 ft 433 kts 126°
2026-04-30 11:34 62.23432 7.29915 27062 ft 435 kts 126°
2026-04-30 11:34 62.21799 7.35406 27515 ft 438 kts 125°
2026-04-30 11:34 62.20186 7.40965 27940 ft 441 kts 124°
2026-04-30 11:35 62.18569 7.46563 28360 ft 443 kts 124°
2026-04-30 11:35 62.16938 7.52180 28745 ft 445 kts 125°
2026-04-30 11:35 62.15298 7.57815 29190 ft 447 kts 125°
2026-04-30 11:35 62.13647 7.63470 29411 ft 449 kts 125°
2026-04-30 11:36 62.10349 7.74722 29381 ft 446 kts 125°
2026-04-30 11:36 62.07049 7.85931 29407 ft 446 kts 125°
2026-04-30 11:37 62.03742 7.97108 29414 ft 446 kts 124°
2026-04-30 11:37 62.00422 8.08270 29403 ft 446 kts 125°
2026-04-30 11:38 61.97094 8.19412 29397 ft 446 kts 124°
2026-04-30 11:38 61.93763 8.30500 29398 ft 445 kts 124°
2026-04-30 11:39 61.90450 8.41489 29399 ft 445 kts 125°
2026-04-30 11:39 61.87084 8.52591 29408 ft 445 kts 125°
2026-04-30 11:40 61.83732 8.63605 29389 ft 445 kts 124°
2026-04-30 11:40 61.80362 8.74616 29390 ft 446 kts 124°
2026-04-30 11:41 61.76984 8.85606 29377 ft 446 kts 124°
2026-04-30 11:41 61.73594 8.96584 29373 ft 447 kts 125°
2026-04-30 11:42 61.70202 9.07513 29356 ft 438 kts 125°
2026-04-30 11:42 61.68553 9.12808 29124 ft 428 kts 125°
2026-04-30 11:42 61.66924 9.18024 28681 ft 424 kts 125°
2026-04-30 11:43 61.65312 9.23178 28271 ft 420 kts 125°
2026-04-30 11:43 61.63709 9.28290 27859 ft 417 kts 124°
2026-04-30 11:43 61.62139 9.33289 27449 ft 414 kts 124°
2026-04-30 11:43 61.60554 9.38319 27043 ft 411 kts 124°
2026-04-30 11:44 61.58982 9.43302 26629 ft 408 kts 124°
2026-04-30 11:44 61.57415 9.48254 26239 ft 405 kts 124°
2026-04-30 11:44 61.55858 9.53166 25839 ft 403 kts 124°
2026-04-30 11:44 61.54308 9.58043 25455 ft 401 kts 124°
2026-04-30 11:45 61.52763 9.62898 25049 ft 399 kts 125°
2026-04-30 11:45 61.51222 9.67729 24657 ft 398 kts 125°
2026-04-30 11:45 61.49687 9.72530 24278 ft 397 kts 125°
2026-04-30 11:45 61.48152 9.77323 23860 ft 396 kts 125°
2026-04-30 11:46 61.46618 9.82100 23399 ft 395 kts 125°
2026-04-30 11:46 61.45093 9.86840 23000 ft 392 kts 125°
2026-04-30 11:46 61.43575 9.91553 22603 ft 389 kts 124°
2026-04-30 11:46 61.42065 9.96227 22212 ft 387 kts 124°
2026-04-30 11:47 61.40564 10.00861 21834 ft 384 kts 124°
2026-04-30 11:47 61.39071 10.05466 21448 ft 382 kts 124°
2026-04-30 11:47 61.37587 10.10035 21066 ft 380 kts 124°
2026-04-30 11:47 61.36108 10.14576 20682 ft 377 kts 125°
2026-04-30 11:48 61.34635 10.19090 20310 ft 375 kts 125°
2026-04-30 11:48 61.33172 10.23569 19942 ft 374 kts 125°
2026-04-30 11:48 61.31712 10.28029 19554 ft 371 kts 125°
2026-04-30 11:48 61.30260 10.32451 19200 ft 369 kts 125°
2026-04-30 11:49 61.28814 10.36848 18818 ft 368 kts 125°
2026-04-30 11:49 61.27372 10.41232 18418 ft 366 kts 125°
2026-04-30 11:49 61.25936 10.45589 18021 ft 365 kts 125°
2026-04-30 11:49 61.24505 10.49925 17650 ft 363 kts 125°
2026-04-30 11:50 61.23079 10.54236 17283 ft 361 kts 124°
2026-04-30 11:50 61.21543 10.58323 16851 ft 359 kts 139°
2026-04-30 11:50 61.19476 10.61076 16533 ft 351 kts 159°
2026-04-30 11:50 61.17238 10.63033 16201 ft 348 kts 159°
2026-04-30 11:51 61.15013 10.64971 15857 ft 346 kts 160°
2026-04-30 11:51 61.12799 10.66870 15506 ft 344 kts 160°
2026-04-30 11:51 61.10590 10.68747 15152 ft 342 kts 160°
2026-04-30 11:51 61.08388 10.70608 14807 ft 341 kts 160°
2026-04-30 11:52 61.06197 10.72456 14457 ft 340 kts 160°
2026-04-30 11:52 61.04014 10.74292 14111 ft 338 kts 160°
2026-04-30 11:52 61.01835 10.76121 13724 ft 337 kts 160°
2026-04-30 11:52 60.99668 10.77939 13352 ft 336 kts 160°
2026-04-30 11:53 60.97513 10.79743 13008 ft 333 kts 160°
2026-04-30 11:53 60.95370 10.81535 12663 ft 331 kts 160°
2026-04-30 11:53 60.93236 10.83262 12308 ft 329 kts 163°
2026-04-30 11:53 60.91072 10.84777 11947 ft 327 kts 163°
2026-04-30 11:54 60.88924 10.86292 11608 ft 325 kts 163°
2026-04-30 11:54 60.86801 10.87797 11301 ft 322 kts 163°
2026-04-30 11:54 60.84688 10.89297 10981 ft 320 kts 163°
2026-04-30 11:54 60.82624 10.90764 10644 ft 318 kts 163°
2026-04-30 11:55 60.80522 10.92254 10433 ft 312 kts 163°
2026-04-30 11:55 60.78495 10.93692 10213 ft 307 kts 163°
2026-04-30 11:55 60.76509 10.95095 9867 ft 306 kts 163°
2026-04-30 11:55 60.74499 10.96518 9511 ft 304 kts 163°
2026-04-30 11:56 60.72526 10.97912 9169 ft 295 kts 163°
2026-04-30 11:56 60.70617 10.99258 8844 ft 286 kts 163°
2026-04-30 11:56 60.68771 11.00557 8548 ft 276 kts 163°
2026-04-30 11:56 60.66982 11.01816 8265 ft 267 kts 163°
2026-04-30 11:57 60.65257 11.03028 7994 ft 258 kts 163°
2026-04-30 11:57 60.63583 11.04203 7730 ft 251 kts 163°
2026-04-30 11:57 60.61939 11.05355 7437 ft 249 kts 163°
2026-04-30 11:57 60.60314 11.06493 7083 ft 249 kts 164°
2026-04-30 11:58 60.58683 11.07637 6684 ft 247 kts 163°
2026-04-30 11:58 60.57067 11.08766 6328 ft 244 kts 163°
2026-04-30 11:58 60.55474 11.09876 5999 ft 241 kts 163°
2026-04-30 11:58 60.53891 11.10977 5746 ft 239 kts 163°
2026-04-30 11:59 60.52324 11.12073 5541 ft 234 kts 163°
2026-04-30 11:59 60.50818 11.13120 5496 ft 224 kts 163°
2026-04-30 11:59 60.49367 11.14135 5345 ft 218 kts 163°
2026-04-30 11:59 60.47956 11.15109 5202 ft 211 kts 164°
2026-04-30 12:00 60.46570 11.16069 5083 ft 209 kts 163°
2026-04-30 12:00 60.45194 11.17024 4961 ft 209 kts 163°
2026-04-30 12:00 60.43821 11.17978 4851 ft 208 kts 163°
2026-04-30 12:00 60.42455 11.18925 4707 ft 207 kts 163°
2026-04-30 12:01 60.41085 11.19786 4571 ft 204 kts 174°
2026-04-30 12:01 60.39733 11.19499 4388 ft 189 kts 197°
2026-04-30 12:01 60.38484 11.18838 4153 ft 182 kts 197°
2026-04-30 12:01 60.37274 11.18189 3830 ft 178 kts 195°
2026-04-30 12:02 60.36087 11.17551 3560 ft 174 kts 195°
2026-04-30 12:02 60.34947 11.16907 3399 ft 167 kts 197°
2026-04-30 12:02 60.33842 11.16259 3139 ft 165 kts 197°
2026-04-30 12:02 60.32754 11.15628 2907 ft 159 kts 197°
2026-04-30 12:03 60.31731 11.15037 2768 ft 147 kts 197°
2026-04-30 12:03 60.29794 11.13926 2380 ft 144 kts 198°
2026-04-30 12:03 60.28836 11.13377 2189 ft 143 kts 196°
2026-04-30 12:04 60.27879 11.12809 1960 ft 143 kts 197°
2026-04-30 12:04 60.26930 11.12252 1804 ft 142 kts 197°
2026-04-30 12:04 60.25997 11.11699 1583 ft 140 kts 196°
2026-04-30 12:04 60.25068 11.11179 1418 ft 143 kts 194°
2026-04-30 12:05 60.24109 11.10632 1287 ft 140 kts 195°
2026-04-30 12:05 60.23211 11.10089 1080 ft 135 kts 193°
2026-04-30 12:05 60.22294 11.09561 877 ft 138 kts 192°
2026-04-30 12:05 60.21376 11.09031 691 ft 135 kts 193°
2026-04-30 12:06 60.20623 11.08600 681 ft 80 kts 195°
2026-04-30 12:06 60.20240 11.08379 676 ft 49 kts 195°
2026-04-30 12:06 60.20024 11.08295 678 ft 17 kts 178°
2026-04-30 12:06 60.19913 11.08361 677 ft 14 kts 134°
2026-04-30 12:07 60.19891 11.08461 677 ft 4 kts 108°
2026-04-30 12:07 60.19885 11.08496 679 ft 2 kts 106°
2026-04-30 12:07 60.19884 11.08505 679 ft 0 kts 106°
2026-04-30 12:07 60.19889 11.08560 681 ft 9 kts 49°
2026-04-30 12:08 60.19974 11.08619 682 ft 15 kts 16°
2026-04-30 12:08 60.20077 11.08679 680 ft 15 kts 15°
2026-04-30 12:08 60.20181 11.08737 683 ft 16 kts 20°
2026-04-30 12:08 60.20203 11.08934 682 ft 17 kts 110°
2026-04-30 12:09 60.20165 11.09183 682 ft 20 kts 106°
2026-04-30 12:09 60.20126 11.09451 681 ft 20 kts 106°
2026-04-30 12:09 60.20086 11.09730 686 ft 21 kts 106°
2026-04-30 12:09 60.20045 11.10020 687 ft 22 kts 106°
2026-04-30 12:10 60.20001 11.10324 683 ft 22 kts 105°
2026-04-30 12:10 60.19961 11.10571 686 ft 14 kts 129°
2026-04-30 12:10 60.19874 11.10572 683 ft 14 kts 197°
2026-04-30 12:10 60.19769 11.10508 686 ft 16 kts 196°
2026-04-30 12:11 60.19680 11.10456 687 ft 10 kts 196°
2026-04-30 12:11 60.19657 11.10381 685 ft 7 kts 287°
2026-04-30 12:11 60.19671 11.10282 684 ft 6 kts 286°
2026-04-30 12:11 60.19679 11.10232 687 ft 1 kts 286°
2026-04-30 12:12 60.19680 11.10224 687 ft 0 kts 286°
2026-04-30 12:12 60.19680 11.10222 687 ft 1 kts 285°
2026-04-30 12:12 60.19681 11.10218 681 ft 0 kts 285°